Weather observations for the past three days for
Dumas, Moore County Airport
Imperial (Metric)
Date Time (cdt) Wind (mph) Vis. (mi.) Weather Sky Cond. Temperature (ºF) Relative Humidity Wind Chill (°F) Heat Index (°F) Pressure Precipitation (in)
Air Dwpt 6 hour altimeter (in) sea level (mb) 1 hr 3 hr 6 hr
Max. Min.
15 05:55 W 6 10.00 Fair CLR 70.5 50.4 49% 30.07 0.0
15 05:35 W 7 10.00 Fair CLR 72.3 50.2 46% 30.07 0.0
15 05:15 S 6 10.00 Fair CLR 70.3 50 49% 30.06 0.0
15 04:55 SW 9 10.00 Fair CLR 71.8 50 46% 30.05 0.0
15 04:35 SW 10 10.00 Fair CLR 73.8 50 43% 30.05 0.0
15 04:15 SW 10 10.00 Fair CLR 74.1 50 43% 30.05 0.0
15 03:55 SW 13 10.00 Fair CLR 76.1 50 40% 78 30.06 0.0
15 03:40 SW 10 10.00 Fair CLR 74.8 50 42% 30.07 0.0
15 02:35 SW 10 10.00 Fair CLR 0 0 0% 30.1 0.0
15 02:15 S 9 10.00 Fair CLR 74.3 51.1 44% 30.08 0.0
15 01:55 S 10 10.00 Fair CLR 75.4 50.9 42% 78 30.09 0.0
15 01:35 S 10 10.00 Fair CLR 76.3 50.5 41% 78 30.09 0.0
15 01:15 S 9 10.00 Fair CLR 76.6 50.4 40% 78 30.1 0.0
15 00:55 S 9 10.00 Fair CLR 78.1 50.5 100.4 75.4 38% 79 30.1 0.0
15 00:35 S 10 10.00 Fair CLR 79.2 50.9 37% 79 30.09 0.0
15 00:15 S 9 10.00 Fair CLR 77.4 50.5 39% 78 30.09 0.0
14 23:55 S 9 10.00 Fair CLR 77.2 50.2 39% 78 30.08 0.0
14 23:35 S 8 10.00 Fair CLR 75.7 49.1 39% 78 30.08 0.0
14 23:15 S 8 10.00 Fair CLR 76.1 48.7 38% 78 30.08 0.0
14 22:55 S 9 10.00 Fair CLR 78.8 48.4 34% 79 30.08 0.0
14 22:35 S 9 10.00 Fair CLR 79.2 48.4 34% 79 30.07 0.0
14 22:15 S 9 10.00 Fair CLR 81.5 48.4 31% 80 30.06 0.0
14 21:55 S 10 10.00 Fair CLR 82.8 48.4 30% 81 30.05 0.0
14 21:35 S 9 10.00 Fair CLR 84.9 48.2 28% 83 30.05 0.0
14 21:15 S 10 10.00 Fair CLR 86.9 48.2 26% 84 30.05 0.0
14 20:55 S 10 10.00 Fair CLR 88.9 47.5 24% 86 30.05 0.0
14 20:35 S 10 10.00 Fair CLR 91.6 46.9 21% 88 30.05 0.0
14 20:15 S 13 10.00 Fair CLR 94.1 47.3 20% 91 30.05 0.0
14 19:55 S 15 G 20 10.00 Fair CLR 96.1 46.8 18% 92 30.05 0.0
14 19:35 S 15 10.00 Fair CLR 98.8 46.6 17% 95 30.05 0.0
14 19:15 S 14 10.00 Fair CLR 99.5 45.9 16% 96 30.04 0.0
14 18:55 S 15 G 18 10.00 Fair CLR 100.6 46.2 102.9 96.6 16% 97 30.05 0.0
14 18:35 S 12 G 16 10.00 Fair CLR 100.6 45.7 15% 97 30.05 0.0
14 18:15 S 14 G 18 10.00 Fair CLR 100.6 45.5 15% 97 30.05 0.0
14 17:55 S 16 G 20 10.00 Fair CLR 100.8 45.3 15% 97 30.06 0.0
14 17:35 S 10 G 22 10.00 Fair CLR 101.5 44.8 14% 97 30.06 0.0
14 17:15 S 12 10.00 Fair CLR 101.7 45 14% 98 30.06 0.0
14 16:55 S 17 G 21 10.00 Fair CLR 102.4 46.6 15% 99 30.07 0.0
14 16:35 S 16 G 22 10.00 Fair CLR 101.8 46.8 15% 98 30.07 0.0
14 16:15 S 7 G 13 10.00 Fair CLR 101.8 45.5 15% 98 30.07 0.0
14 15:55 S 17 G 23 10.00 Fair CLR 102.4 47.5 16% 99 30.07 0.0
14 15:35 SW 13 G 22 10.00 Fair CLR 101.3 45.3 15% 97 30.08 0.0
14 15:15 S 15 G 22 10.00 Fair CLR 101.3 45.7 15% 97 30.08 0.0
14 14:55 S 16 G 23 10.00 Fair CLR 101.3 46 15% 97 30.08 0.0
14 14:35 SE 18 G 25 10.00 Fair CLR 101.1 47.3 16% 97 30.09 0.0
14 14:15 S 16 G 23 10.00 Fair CLR 99.7 47.5 17% 96 30.1 0.0
14 13:55 S 15 G 23 10.00 Fair CLR 99.7 48.2 17% 96 30.11 0.0
14 13:35 S 17 G 22 10.00 Fair CLR 99.1 51.1 20% 96 30.11 0.0
14 13:15 S 18 G 23 10.00 Fair CLR 97 52.3 22% 94 30.13 0.0
14 12:55 S 17 10.00 Fair CLR 96.8 52.2 96.8 68.5 22% 94 30.13 0.0
14 12:35 SW 17 G 23 10.00 Fair CLR 95 51.4 23% 92 30.14 0.0
14 12:15 SW 20 G 24 10.00 Fair CLR 94.6 53.2 25% 92 30.14 0.0
14 11:55 SW 22 G 29 10.00 Fair and Breezy CLR 93.7 54 26% 91 30.15 0.0
14 11:35 SW 21 G 24 10.00 Fair and Breezy CLR 91.8 54.9 29% 90 30.15 0.0
14 11:15 SW 22 G 26 10.00 Fair and Breezy CLR 90.3 55.6 31% 88 30.15 0.0
14 10:55 SW 23 10.00 Fair and Breezy CLR 88.9 55.8 33% 87 30.15 0.0
14 10:35 SW 21 G 26 10.00 Fair and Breezy CLR 86.2 55 35% 85 30.16 0.0
14 10:15 SW 23 G 26 10.00 Fair and Breezy CLR 85.6 54.7 35% 84 30.16 0.0
14 09:55 SW 24 G 30 10.00 Fair and Breezy CLR 84 53.1 34% 83 30.17 0.0
14 09:35 SW 22 G 28 10.00 Fair and Breezy CLR 83.5 52.7 35% 82 30.17 0.0
14 09:15 SW 21 10.00 Fair and Breezy CLR 82.2 53.1 37% 81 30.17 0.0
14 08:55 SW 18 G 24 10.00 Fair CLR 80.2 52.2 38% 80 30.17 0.0
14 08:35 SW 21 10.00 Fair and Breezy CLR 78.4 51.1 39% 79 30.17 0.0
14 08:15 SW 18 10.00 Fair CLR 77 49.1 38% 78 30.16 0.0
14 07:55 SW 16 10.00 Fair CLR 75.2 48.2 39% 77 30.16 0.0
14 07:35 SW 14 10.00 Fair CLR 72.3 48.2 43% 30.15 0.0
14 07:15 SW 10 10.00 Fair CLR 69.8 48.4 47% 30.15 0.0
14 06:55 SW 10 10.00 Fair CLR 68.5 48.4 75.4 67.6 49% 30.15 0.0
14 06:35 SW 12 10.00 Fair CLR 70.3 48.2 45% 30.15 0.0
14 06:15 SW 13 10.00 Fair CLR 70.2 48.4 46% 30.15 0.0
14 05:55 SW 13 10.00 Fair CLR 70.5 48.6 46% 30.15 0.0
14 05:35 SW 12 10.00 Fair CLR 70.3 48.4 46% 30.15 0.0
14 05:15 SW 12 10.00 Fair CLR 69.3 48.6 48% 30.15 0.0
14 04:55 SW 10 10.00 Fair CLR 68.9 48.4 48% 30.15 0.0
14 04:35 SW 8 10.00 Fair CLR 68.9 48.2 48% 30.15 0.0
14 04:15 SW 8 10.00 Fair CLR 68.4 48.2 49% 30.15 0.0
14 03:55 SW 8 10.00 Fair CLR 70.3 48.2 45% 30.15 0.0
14 03:35 SW 13 10.00 Fair CLR 73.2 48 41% 30.15 0.0
14 03:15 SW 14 10.00 Fair CLR 72.5 47.5 41% 30.15 0.0
14 02:55 SW 9 10.00 Fair CLR 71.4 46.9 42% 30.15 0.0
14 02:35 S 10 10.00 Fair CLR 72.9 46.4 39% 30.16 0.0
14 02:15 S 10 10.00 Fair CLR 73.8 46.9 39% 30.16 0.0
14 01:55 S 10 10.00 Fair CLR 73.8 46.4 38% 30.17 0.0
14 01:35 S 10 10.00 Fair CLR 73.4 46 38% 30.17 0.0
14 01:15 S 10 10.00 Fair CLR 74.5 45.5 36% 30.17 0.0
14 00:55 S 9 10.00 Fair CLR 75.6 45.1 97.5 73.6 34% 77 30.18 0.0
14 00:35 S 9 10.00 Fair CLR 75.6 45 34% 77 30.18 0.0
14 00:15 S 10 10.00 Fair CLR 75.2 44.8 34% 77 30.18 0.0
13 23:55 S 10 10.00 Fair CLR 74.5 44.8 35% 30.18 0.0
13 23:30 S 9 10.00 Fair CLR 74.5 44.8 35% 30.18 0.0
13 22:55 S 9 10.00 Fair CLR 77.4 44.8 32% 78 30.17 0.0
13 22:35 S 10 10.00 Fair CLR 76.5 44.4 32% 78 30.16 0.0
13 22:15 S 10 10.00 Fair CLR 78.3 44.2 30% 78 30.16 0.0
13 21:55 S 9 10.00 Fair CLR 80.1 44.1 28% 79 30.15 0.0
13 21:35 S 9 10.00 Fair CLR 82.4 43.5 25% 80 30.15 0.0
13 21:15 SE 8 10.00 Fair CLR 84.7 42.4 23% 82 30.14 0.0
13 20:55 S 12 10.00 Fair CLR 87.1 42.8 21% 84 30.14 0.0
13 20:35 SE 13 G 18 10.00 Fair CLR 90.5 41.9 18% 87 30.13 0.0
13 20:15 S 14 G 18 10.00 Fair CLR 93.2 41.5 17% 89 30.12 0.0
13 19:55 S 16 10.00 Fair CLR 94.5 40.8 15% 90 30.12 0.0
13 19:35 S 14 10.00 Fair CLR 95.9 40.5 15% 91 30.11 0.0
13 19:15 SE 17 G 23 10.00 Fair CLR 97 40.5 14% 92 30.11 0.0
13 18:55 S 14 10.00 Fair CLR 97.3 40.6 99.9 96.1 14% 93 30.11 0.0
13 18:35 S 14 G 21 10.00 Fair CLR 98.1 40.6 14% 94 30.11 0.0
13 18:15 S 16 G 21 10.00 Fair CLR 98.1 40.3 14% 93 30.11 0.0
13 17:55 SE 15 G 24 10.00 Fair CLR 98.2 39.9 13% 94 30.12 0.0
13 17:35 S 17 G 22 10.00 Fair CLR 98.6 39.4 13% 94 30.12 0.0
13 17:15 S 14 G 21 10.00 Fair CLR 99 39 13% 94 30.13 0.0
13 16:55 SE 15 G 23 10.00 Fair CLR 99.3 39.7 13% 95 30.13 0.0
13 16:35 S 13 G 20 10.00 Fair CLR 99.3 40.3 13% 95 30.13 0.0
13 16:15 S 17 G 24 10.00 Fair CLR 98.6 40.8 14% 94 30.14 0.0
13 15:55 S 18 G 23 10.00 Fair CLR 99 41 14% 94 30.15 0.0
13 15:35 S 15 G 22 10.00 Fair CLR 98.8 42.1 14% 94 30.15 0.0
13 15:15 S 16 G 25 10.00 Fair CLR 97.9 41.7 14% 93 30.15 0.0
13 14:55 S 15 G 24 10.00 Fair CLR 98.2 41.5 14% 94 30.15 0.0
13 14:35 S 15 G 24 10.00 Fair CLR 97.5 41.4 14% 93 30.16 0.0
13 14:15 S 18 G 25 10.00 Fair CLR 96.4 40.5 14% 92 30.16 0.0
13 13:55 S 21 G 25 10.00 Fair and Breezy CLR 97.2 40.8 14% 93 30.16 0.0
13 13:35 S 18 G 30 10.00 Fair CLR 97 40.8 14% 93 30.17 0.0
13 13:15 S 14 G 26 10.00 Fair CLR 96.4 41.5 15% 92 30.17 0.0
13 12:55 S 15 G 29 10.00 Fair CLR 96.6 42.4 96.6 69.3 15% 92 30.17 0.0
13 12:35 S 15 G 25 10.00 Fair CLR 95.4 42.3 16% 91 30.18 0.0
13 12:15 S 20 G 24 10.00 Fair CLR 94.3 44.4 18% 90 30.18 0.0
13 11:55 S 21 G 26 10.00 Fair and Breezy CLR 93.9 44.4 18% 90 30.19 0.0
13 11:35 S 18 G 24 10.00 Fair CLR 92.7 45.3 20% 89 30.19 0.0
13 10:55 SW 18 G 25 10.00 Fair CLR 90.3 48.2 23% 87 30.19 0.0
13 10:35 S 21 G 25 10.00 Fair and Breezy CLR 89.2 48.2 24% 86 30.2 0.0
13 10:15 SW 21 10.00 Fair and Breezy CLR 88.3 48 25% 85 30.2 0.0
13 09:55 SW 20 G 28 10.00 Fair CLR 86.4 48 26% 84 30.2 0.0
13 09:35 SW 21 G 28 10.00 Fair and Breezy CLR 84.4 48.2 28% 82 30.2 0.0
13 09:15 SW 18 10.00 Fair CLR 82.4 49.1 31% 81 30.21 0.0
13 08:55 SW 18 G 23 10.00 Fair CLR 79.5 49.8 35% 79 30.2 0.0
13 08:35 SW 16 G 23 10.00 Fair CLR 77.2 50.5 39% 78 30.21 0.0
13 08:15 S 14 10.00 Fair CLR 75.2 51.1 43% 78 30.21 0.0
13 07:55 S 12 10.00 Fair CLR 73.2 51.1 46% 30.21 0.0
13 07:35 S 8 10.00 Fair CLR 71.6 51.1 48% 30.2 0.0
13 07:15 S 10 10.00 Fair CLR 69.8 50.7 51% 30.2 0.0
13 06:55 S 10 10.00 Fair CLR 69.8 50 78.1 69.4 50% 30.19 0.0
13 06:35 S 12 10.00 Fair CLR 70.7 49.5 47% 30.19 0.0
13 06:15 S 13 10.00 Fair CLR 71.1 49.5 47% 30.19 0.0
13 05:55 S 12 10.00 Fair CLR 70.7 50 48% 30.18 0.0
13 05:35 S 12 10.00 Fair CLR 70.5 50 48% 30.17 0.0
13 05:15 S 9 10.00 Fair CLR 69.8 50.2 50% 30.17 0.0
13 04:55 S 10 10.00 Fair CLR 70.9 50.4 48% 30.16 0.0
13 04:35 S 10 10.00 Fair CLR 71.4 50.2 47% 30.16 0.0
13 04:15 S 12 10.00 Fair CLR 72.3 50.2 46% 30.15 0.0
13 03:55 S 12 10.00 Fair CLR 72.7 50.2 45% 30.16 0.0
13 03:35 S 12 10.00 Fair CLR 73.6 50 44% 30.15 0.0
13 03:15 S 12 10.00 Fair CLR 73.8 49.8 43% 30.16 0.0
13 02:55 S 13 10.00 Fair CLR 74.3 49.5 42% 30.16 0.0
13 02:35 S 14 10.00 Fair CLR 75.2 49.3 40% 78 30.16 0.0
13 02:15 S 18 10.00 Fair CLR 76.5 49.1 38% 78 30.16 0.0
13 01:55 S 13 10.00 Fair CLR 75 48.2 39% 77 30.16 0.0
13 01:40 S 12 10.00 Fair CLR 75.7 48 38% 78 30.16 0.0
13 01:15 S 13 10.00 Fair CLR 77.7 48.2 35% 78 30.16 0.0
13 00:55 S 14 10.00 Fair CLR 78.1 47.7 97.7 77 34% 78 30.16 0.0
13 00:35 S 12 10.00 Fair CLR 77 46.8 34% 78 30.15 0.0
13 00:15 S 13 10.00 Fair CLR 79.3 46.6 32% 79 30.15 0.0
12 23:55 S 15 10.00 Fair CLR 80.2 46 30% 79 30.14 0.0
12 23:35 S 14 10.00 Fair CLR 80.8 45.5 29% 80 30.14 0.0
12 23:15 S 14 10.00 Fair CLR 81.5 45.5 28% 80 30.13 0.0
12 22:55 S 13 10.00 Fair CLR 82.4 45.1 27% 81 30.12 0.0
12 22:35 S 14 10.00 Fair CLR 83.5 45 26% 81 30.11 0.0
12 22:15 S 15 10.00 Fair CLR 83.3 44.8 26% 81 30.1 0.0
12 21:55 S 10 10.00 Fair CLR 83.3 44.8 26% 81 30.09 0.0
12 21:35 S 12 10.00 Fair CLR 85.1 44.6 24% 82 30.08 0.0
12 21:15 S 12 10.00 Fair CLR 86.5 44.6 23% 83 30.08 0.0
12 20:55 S 12 10.00 Fair CLR 89.2 44.4 21% 86 30.08 0.0
12 20:35 S 14 10.00 Fair CLR 91 44.4 20% 87 30.07 0.0
12 20:15 S 18 10.00 Fair CLR 93 44.2 19% 89 30.07 0.0
12 19:55 S 14 10.00 Fair CLR 94.6 43.9 17% 91 30.07 0.0
12 19:15 S 16 G 22 10.00 Fair CLR 96.6 43.2 16% 92 30.06 0.0
12 18:55 S 14 10.00 Fair CLR 97.2 42.6 100 95 15% 93 30.06 0.0
12 18:35 S 16 G 24 10.00 Fair CLR 97.7 42.8 15% 93 30.05 0.0
12 18:15 S 10 G 18 10.00 Fair CLR 98.1 42.8 15% 94 30.05 0.0
12 17:55 S 15 G 21 10.00 Fair CLR 97 42.1 15% 93 30.05 0.0
12 17:35 S 17 G 26 10.00 Fair CLR 99 42.6 14% 95 30.06 0.0
12 17:15 S 17 G 37 10.00 Fair CLR 99.3 43 14% 95 30.05 0.0
12 16:55 S 17 G 26 10.00 Fair CLR 99.5 43 14% 95 30.07 0.0
12 16:35 SW 12 G 20 10.00 Fair CLR 98.6 41.9 14% 94 30.07 0.0
12 16:15 SW 10 G 21 10.00 Fair CLR 98.1 41 14% 94 30.07 0.0
12 15:55 SW 10 G 23 10.00 Fair CLR 99.5 40.8 13% 95 30.08 0.0
12 15:35 S 6 G 18 10.00 Fair CLR 99.1 40.5 13% 94 30.08 0.0
12 15:15 S 14 G 22 10.00 Fair CLR 98.6 40.3 13% 94 30.09 0.0
12 14:55 SW 14 G 23 10.00 Fair CLR 98.4 40.3 13% 94 30.09 0.0
12 14:35 SW 10 10.00 Fair CLR 98.1 40.5 14% 93 30.1 0.0
12 14:15 SW 9 G 18 10.00 Fair CLR 98.1 42.4 15% 94 30.11 0.0
12 13:55 S 12 G 21 10.00 Fair CLR 96.6 42.4 15% 92 30.11 0.0
12 13:35 S 18 G 24 10.00 Fair CLR 98.1 43.3 15% 94 30.12 0.0
12 13:15 S 9 G 25 10.00 Fair CLR 95.9 42.1 16% 92 30.12 0.0
12 12:55 SW 12 G 20 10.00 Fair CLR 95 43.3 95.2 68 17% 91 30.13 0.0
12 12:35 SW 15 G 18 10.00 Fair CLR 94.6 44.4 18% 91 30.13 0.0
12 12:15 SW 15 10.00 Fair CLR 94.1 46.2 19% 90 30.14 0.0
12 11:55 W 18 G 23 10.00 Fair CLR 93.4 46.4 20% 90 30.14 0.0
12 11:35 SW 18 G 24 10.00 Fair CLR 92.5 46.6 21% 89 30.14 0.0
12 11:15 SW 20 G 24 10.00 Fair CLR 90.3 46.8 22% 87 30.15 0.0
12 10:55 SW 20 G 25 10.00 Fair CLR 88.7 46.8 23% 85 30.15 0.0
12 10:35 SW 22 G 26 10.00 Fair and Breezy CLR 87.3 47.5 25% 84 30.15 0.0
12 10:15 SW 24 G 28 10.00 Fair and Breezy CLR 86.5 47.7 26% 84 30.15 0.0
12 09:55 SW 25 G 31 10.00 Fair and Breezy CLR 86 47.7 26% 83 30.15 0.0
12 09:35 SW 21 G 28 10.00 Fair and Breezy CLR 83.7 47.7 29% 82 30.15 0.0
12 09:15 SW 21 10.00 Fair and Breezy CLR 81.7 48 31% 80 30.15 0.0
12 08:55 SW 15 10.00 Fair CLR 79.7 49.5 35% 79 30.14 0.0
12 08:35 SW 17 10.00 Fair CLR 77.5 49.3 37% 78 30.14 0.0
12 08:15 SW 17 10.00 Fair CLR 74.8 49.1 40% 30.13 0.0
12 07:55 SW 14 10.00 Fair CLR 72.9 49.1 43% 30.12 0.0
12 07:35 SW 14 10.00 Fair CLR 69.8 49.1 48% 30.11 0.0
12 07:15 SW 12 10.00 Fair CLR 68.4 48.7 50% 30.11 0.0
12 06:55 SW 13 10.00 Fair CLR 68.5 48.6 73.8 68.5 49% 30.11 0.0
12 06:35 SW 13 10.00 Fair CLR 69.3 48.4 48% 30.11 0.0
12 06:15 SW 14 10.00 Fair CLR 69.8 48.4 47% 30.11 0.0
Date Time (cdt) Wind (mph) Vis. (mi.) Weather Sky Cond. Air Dwpt Max. Min. Relative Humidity Wind Chill (°F) Heat Index (°F) altimeter (in) sea level (mb) 1 hr 3 hr 6 hr
6 hour
Temperature (ºF) Pressure Precipitation (in)